Zurück zum Katalog

THORAD DELTA 1 DEB

AktivSSO
NORAD 8398·DEBRIS·🇺🇸 United States

Gestartet Nov 15, 1974 von Vandenberg Space Force Base

Loading…

Nächste Überflüge (nächste 24 Stunden)

TLE

AktuellSource: Space-Track

Epoche: Sep 14, 2026, 11:03 UTC

1 08398U 74089CA  26257.46050686 -.00000051  00000-0 -45989-4 0  9990
2 08398 102.6072 249.1943 0077028 177.8028 349.7405 12.26597242 76181

Verfolge THORAD DELTA 1 DEB in Echtzeit mit AllMySat

Download on the App Store